Location: Unspecified
(43.1763°N, 179.4719°W)
Time: 14:55:14
(UTC-04:00)

ISS - Visible Passes

Search period start: 16 October 2021 00:00
Search period end: 26 October 2021 00:00
Orbit: 417 x 423 km, 51.6° (Epoch: 16 October)

Date Brightness Start Highest point End Pass type
(mag) Time Alt. Az. Time Alt. Az. Time Alt. Az.
20 Oct -1.1 13:22:19 10° S 13:24:51 20° SE 13:27:23 10° E visible
21 Oct -0.7 12:36:25 10° SSE 12:37:49 12° SE 12:39:11 10° ESE visible
22 Oct -3.1 13:23:38 10° SW 13:26:57 55° SE 13:30:15 10° ENE visible
23 Oct -2.2 12:38:21 23° S 12:39:46 33° SE 12:42:50 10° ENE visible
24 Oct -1.0 11:53:35 18° ESE 11:53:35 18° ESE 11:55:12 10° E visible
24 Oct -3.6 13:26:36 15° WSW 13:29:12 57° NNW 13:32:33 10° NE visible
25 Oct -3.9 12:41:40 77° WSW 12:41:53 88° NW 12:45:16 10° ENE visible
